TimeEST,TemperatureF,Dew PointF,Humidity,Sea Level PressureIn,VisibilityMPH,Wind Direction,Wind SpeedMPH,Gust SpeedMPH,PrecipitationIn,Events,Conditions,WindDirDegrees,DateUTC
12:00 AM,65,61,84,30.23,7,SSW,17.3,,,,Haze,200,2013-09-07 14:00:00
12:00 AM,64.4,60.8,88,30.21,6.2,SSW,17.3,-,N/A,,Mostly Cloudy,200,2013-09-07 14:00:00
12:19 AM,64.4,60.8,88,30.21,6.2,SSW,17.3,-,N/A,,Mostly Cloudy,200,2013-09-07 14:19:00
12:30 AM,64.4,60.8,88,30.21,6.2,SSW,18.4,-,N/A,,Mostly Cloudy,210,2013-09-07 14:30:00
1:00 AM,63,59,84,30.23,,SSW,24.2,,,,,210,2013-09-07 15:00:00
1:00 AM,62.6,59.0,88,30.21,6.2,SSW,24.2,-,N/A,,Mostly Cloudy,210,2013-09-07 15:00:00
1:30 AM,62.6,59.0,88,30.21,6.2,SSW,21.9,-,N/A,,Light Drizzle,200,2013-09-07 15:30:00
2:00 AM,63,58,77,30.23,,SSW,18.4,,,,,200,2013-09-07 16:00:00
2:00 AM,62.6,57.2,82,30.21,6.2,SSW,18.4,-,N/A,,Light Drizzle,200,2013-09-07 16:00:00
2:30 AM,62.6,57.2,82,30.21,6.2,SSW,19.6,-,N/A,,Mostly Cloudy,200,2013-09-07 16:30:00
3:00 AM,64,57,71,30.23,9,SSW,19.6,,,,Haze,200,2013-09-07 17:00:00
3:00 AM,64.4,57.2,77,30.21,6.2,South,19.6,-,N/A,,Mostly Cloudy,190,2013-09-07 17:00:00
3:30 AM,64.4,57.2,77,30.21,6.2,South,19.6,-,N/A,,Mostly Cloudy,180,2013-09-07 17:30:00
4:00 AM,64,56,69,30.23,,South,21.9,,,,,180,2013-09-07 18:00:00
4:00 AM,64.4,57.2,77,30.21,6.2,South,21.9,-,N/A,,Overcast,180,2013-09-07 18:00:00
4:30 AM,62.6,57.2,82,30.24,6.2,South,20.7,-,N/A,,Overcast,190,2013-09-07 18:30:00
5:00 AM,63,57,74,30.25,,South,19.6,,,,,180,2013-09-07 19:00:00
5:00 AM,62.6,57.2,82,30.24,6.2,South,19.6,-,N/A,,Mostly Cloudy,180,2013-09-07 19:00:00
5:30 AM,62.6,57.2,82,30.24,6.2,South,21.9,-,N/A,,Mostly Cloudy,180,2013-09-07 19:30:00
6:00 AM,63,57,76,30.26,11,South,17.3,,,,Haze,190,2013-09-07 20:00:00
6:00 AM,62.6,57.2,82,30.24,6.2,South,17.3,-,N/A,,Mostly Cloudy,190,2013-09-07 20:00:00
6:30 AM,62.6,57.2,82,30.27,6.2,South,18.4,-,N/A,,Mostly Cloudy,170,2013-09-07 20:30:00
7:00 AM,63,58,78,30.28,,South,15.0,,,,,170,2013-09-07 21:00:00
7:00 AM,62.6,57.2,82,30.27,6.2,South,15.0,-,N/A,,Mostly Cloudy,170,2013-09-07 21:00:00
7:30 AM,62.6,57.2,82,30.27,6.2,South,15.0,-,N/A,Rain,Light Rain Showers,170,2013-09-07 21:30:00
8:00 AM,63,58,77,30.30,,South,12.7,,,,,170,2013-09-07 22:00:00
8:00 AM,62.6,57.2,82,30.27,6.2,South,12.7,-,N/A,,Mostly Cloudy,170,2013-09-07 22:00:00
8:30 AM,62.6,57.2,82,30.30,6.2,South,12.7,-,N/A,,Mostly Cloudy,170,2013-09-07 22:30:00
9:00 AM,63,57,75,30.31,12,South,10.4,,,,Haze,170,2013-09-07 23:00:00
9:00 AM,62.6,57.2,82,30.30,6.2,South,10.4,-,N/A,,Mostly Cloudy,170,2013-09-07 23:00:00
9:31 AM,62.6,57.2,82,30.30,6.2,South,9.2,-,N/A,,Mostly Cloudy,170,2013-09-07 23:31:00
10:00 AM,64,57,71,30.30,,South,9.2,,,,,170,2013-09-08 00:00:00
10:00 AM,64.4,57.2,77,30.27,6.2,South,9.2,-,N/A,,Mostly Cloudy,170,2013-09-08 00:00:00
10:30 AM,64.4,57.2,77,30.27,6.2,South,9.2,-,N/A,,Mostly Cloudy,190,2013-09-08 00:30:00
11:00 AM,65,57,68,30.28,,South,9.2,,,,,190,2013-09-08 01:00:00
11:00 AM,64.4,57.2,77,30.27,6.2,South,9.2,-,N/A,,Mostly Cloudy,190,2013-09-08 01:00:00
11:30 AM,64.4,57.2,77,30.27,6.2,South,10.4,-,N/A,,Mostly Cloudy,170,2013-09-08 01:30:00
12:00 PM,64,57,71,30.27,16,South,9.2,,,,Partly Cloudy,180,2013-09-08 02:00:00
12:00 PM,64.4,57.2,77,30.27,6.2,South,9.2,-,N/A,,Mostly Cloudy,180,2013-09-08 02:00:00
12:30 PM,64.4,57.2,77,30.24,6.2,South,8.1,-,N/A,,Mostly Cloudy,190,2013-09-08 02:30:00
1:00 PM,65,57,67,30.24,,SSE,9.2,,,,,160,2013-09-08 03:00:00
1:00 PM,66.2,57.2,73,30.24,6.2,SSE,9.2,-,N/A,,Mostly Cloudy,160,2013-09-08 03:00:00
1:30 PM,64.4,57.2,77,30.21,6.2,South,9.2,-,N/A,,Mostly Cloudy,170,2013-09-08 03:30:00
2:00 PM,65,57,68,30.22,,South,10.4,,,,,180,2013-09-08 04:00:00
2:00 PM,64.4,57.2,77,30.21,6.2,South,10.4,-,N/A,,Mostly Cloudy,180,2013-09-08 04:00:00
2:30 PM,66.2,57.2,73,30.21,6.2,South,11.5,-,N/A,,Mostly Cloudy,170,2013-09-08 04:30:00
3:00 PM,65,57,68,30.22,16,SSE,11.5,,,,Mostly Cloudy,160,2013-09-08 05:00:00
3:00 PM,64.4,57.2,77,30.21,6.2,SSE,11.5,-,N/A,,Mostly Cloudy,160,2013-09-08 05:00:00
3:30 PM,64.4,57.2,77,30.18,6.2,SE,8.1,-,N/A,,Mostly Cloudy,130,2013-09-08 05:30:00
4:00 PM,66.2,57.2,73,30.18,6.2,SE,8.1,-,N/A,,Mostly Cloudy,140,2013-09-08 06:00:00
4:30 PM,64.4,57.2,77,30.18,6.2,East,10.4,-,N/A,,Scattered Clouds,100,2013-09-08 06:30:00
5:00 PM,65,57,68,30.20,,East,10.4,,,,,90,2013-09-08 07:00:00
5:00 PM,64.4,57.2,77,30.18,6.2,East,10.4,-,N/A,,Mostly Cloudy,90,2013-09-08 07:00:00
5:30 PM,64.4,59.0,83,30.18,6.2,East,9.2,-,N/A,,Mostly Cloudy,90,2013-09-08 07:30:00
6:00 PM,65,58,73,30.21,12,East,9.2,,,,Overcast,90,2013-09-08 08:00:00
6:00 PM,64.4,59.0,83,30.18,6.2,East,9.2,-,N/A,,Mostly Cloudy,90,2013-09-08 08:00:00
6:30 PM,66.2,59.0,78,30.21,6.2,NE,9.2,-,N/A,,Mostly Cloudy,50,2013-09-08 08:30:00
7:00 PM,65,59,74,30.23,,ENE,11.5,,,,,70,2013-09-08 09:00:00
7:00 PM,66.2,59.0,78,30.21,6.2,ENE,11.5,-,N/A,,Light Drizzle,70,2013-09-08 09:00:00
7:30 PM,66.2,59.0,78,30.21,6.2,ENE,12.7,-,N/A,,Mostly Cloudy,70,2013-09-08 09:30:00
8:00 PM,65,58,73,30.24,,East,10.4,,,,,80,2013-09-08 10:00:00
8:00 PM,66.2,59.0,78,30.24,6.2,East,10.4,-,N/A,,Mostly Cloudy,80,2013-09-08 10:00:00
8:30 PM,66.2,59.0,78,30.24,6.2,ENE,10.4,-,N/A,,Mostly Cloudy,70,2013-09-08 10:30:00
9:00 PM,65,59,74,30.25,12,ENE,10.4,,,,Overcast,60,2013-09-08 11:00:00
9:00 PM,64.4,59.0,83,30.24,6.2,ENE,10.4,-,N/A,,Mostly Cloudy,60,2013-09-08 11:00:00
9:30 PM,64.4,59.0,83,30.24,6.2,ENE,12.7,-,N/A,,Mostly Cloudy,70,2013-09-08 11:30:00
10:00 PM,64,59,79,30.26,,NE,9.2,,,,,50,2013-09-08 12:00:00
10:00 PM,64.4,59.0,83,30.24,6.2,NE,9.2,-,N/A,,Scattered Clouds,50,2013-09-08 12:00:00
10:30 PM,64.4,59.0,83,30.24,6.2,ENE,9.2,-,N/A,,Mostly Cloudy,60,2013-09-08 12:30:00
11:00 PM,65,59,75,30.25,,NNE,8.1,,,,,30,2013-09-08 13:00:00
11:00 PM,64.4,59.0,83,30.24,6.2,NNE,8.1,-,N/A,,Mostly Cloudy,30,2013-09-08 13:00:00
11:30 PM,64.4,59.0,83,30.24,6.2,NE,8.1,-,N/A,,Mostly Cloudy,40,2013-09-08 13:30:00